Regional Weather Roundup
Issued by NWS Raleigh/Durham, NC

Home | Current Version | Previous Version | Text Only | Print | Product List | Glossary On
Versions: 1 2 3 4 5 6 7 8 9 10 11 12 13 14 15 16 17 18 19 20 21 22 23 24 25 26 27 28
000
ASUS42 KRAH 210010
RWRRAH
NORTH CAROLINA WEATHER ROUNDUP
NATIONAL WEATHER SERVICE RALEIGH NC
800 PM EDT SUN APR 20 2014

NOTE: "FAIR" INDICATES FEW OR NO CLOUDS BELOW 12,000 FEET WITH NO
SIGNIFICANT WEATHER AND/OR OBSTRUCTIONS TO VISIBILITY.

NCZ001-053-055-056-065-067-210100-
WESTERN NORTH CAROLINA

CITY           SKY/WX    TMP DP  RH WIND       PRES   REMARKS
ASHEVILLE      CLEAR     64  28  25 VRB5      30.20R
JEFFERSON      CLEAR     57  23  26 SE7       30.24R
MORGANTON      CLEAR     62  33  33 E3        30.24R
HICKORY        CLEAR     64  29  26 CALM      30.19S
RUTHERFORDTON  CLEAR     65  32  29 E3        30.19S
MOUNT AIRY     CLEAR     64  27  25 NE7       30.21S
BOONE          CLEAR     56  25  30 SE3       30.25S
$$

NCZ021-022-025-041-071-084-088-210100-
CENTRAL NORTH CAROLINA

CITY           SKY/WX    TMP DP  RH WIND       PRES   REMARKS
CHARLOTTE      PTCLDY    65  32  29 NE8       30.19S
GREENSBORO     PTCLDY    60  33  36 NE9       30.21R
WINSTON-SALEM  CLEAR     63  31  30 NE7       30.22S
RALEIGH-DURHAM CLOUDY    61  42  49 NE12      30.21S
FORT BRAGG     CLOUDY    61  47  59 NE8G18    30.16S
FAYETTEVILLE   CLOUDY    61  46  57 N15       30.15S
CHAPEL HILL    CLOUDY    63  41  44 NE9G18    30.21S
BURLINGTON     PTCLDY    62  36  37 NE7       30.21R
LAURINBURG     CLOUDY    62  49  62 NE13      30.16R
$$

NCZ011-015-027-028-043-044-047-080-103-210100-
NORTHEASTERN NORTH CAROLINA

CITY           SKY/WX    TMP DP  RH WIND       PRES   REMARKS
ROCKY MT-WILSO CLOUDY    57  38  48 NE12      30.21S
GREENVILLE     CLOUDY    55  37  50 N12       30.20R
WASHINGTON     CLOUDY    53  43  69 NE15G23   30.17R
ELIZABETH CITY CLOUDY    48  42  80 N23G35    30.21S
MANTEO         RAIN      47  45  94 NE23G37   30.14R
CAPE HATTERAS  CLOUDY    50  50 100 NE17G38   30.06F FOG
$$

NCZ078-087-090-091-093-098-101-210100-
SOUTHEASTERN NORTH CAROLINA

CITY           SKY/WX    TMP DP  RH WIND       PRES   REMARKS
LUMBERTON      CLOUDY    61  46  57 NE18      30.14R
GOLDSBORO      CLOUDY    58  42  55 NE14G22   30.16R
KINSTON        CLOUDY    55  41  58 N15G25    30.17R
KENANSVILLE    CLOUDY    56  43  61 N13G18    30.15S
NEW BERN       CLOUDY    54  48  80 N22G32    30.13S
CHERRY POINT   CLOUDY    52  49  89 N22G32    30.10R
BEAUFORT       CLOUDY    54  51  90 N22G37    30.06R
JACKSONVILLE   CLOUDY    54  53  97 N20G31    30.10R
WILMINGTON     CLOUDY    56  51  84 N20G31    30.08R
$$




USA.gov is the U.S. government's official web portal to all federal, state and local government web resources and services.